Flag for China Weather past 2 weeks in Foochow, Fujian, China

Now
75 °F

Light rain. Passing clouds.


Feels Like: 76 °F
Forecast: 71 / 80 °F
Wind: 6 mph from Northwest

Location: Fuzhou Airport

Current Time: Aug 31, 2015 at 2:21:00 AM

Latest Report: Aug 31, 2015 at 2:00 AM


Visibility: N/A

Pressure: 29.77 "Hg

Humidity: 78%

Dew point: 68 °F

Location of FoochowLocation

Historic Weather in Foochow — Graph

°F

Foochow temperature yesterday

Maximum temperature yesterday: 79 °F (at 8:00 AM)
Minimum temperature yesterday: 73 °F (at 8:00 PM)
Average temperature yesterday: 76 °F

Past Weeks' High & Low Weather Summary

 TemperatureHumidityPressure
High91 °F (Aug 24, 12:00 PM)100% (Aug 19, 8:00 AM)29.86 "Hg (Aug 19, 8:00 AM)
Low73 °F (Aug 29, 2:00 AM)43% (Aug 26, 11:00 AM)29.45 "Hg (Aug 23, 2:00 PM)
Average81 °F83%29.70 "Hg
* Reported Aug 16 1:00 AM — Aug 31 1:00 AM, Foochow, Weather by CustomWeather, © 2015

Note: Actual official high and low records may vary slightly from our data, if they occured in-between our weather recording intervals... More about our weather records

Advertising

Foochow weather history for previous 24 hours

 ConditionsComfort  
Time TempWeatherWind HumidityBarometerVisibility
1:00 AM
Mon, Aug 31
75 °FPassing clouds.8 mph78%29.80 "HgN/A
12:00 AM75 °FOvercast.6 mph78%29.80 "HgN/A
11:00 PM
Sun, Aug 30
73 °FLight rain. Passing clouds.6 mph89%29.80 "Hg5 mi
10:00 PM73 °FPassing clouds.6 mph89%29.80 "HgN/A
9:00 PM73 °FPassing clouds.6 mph89%29.80 "HgN/A
8:00 PM73 °FPassing clouds.10 mph89%29.77 "HgN/A
7:00 PM75 °FLight rain. Overcast.10 mph89%29.77 "Hg4 mi
6:00 PM75 °FLight rain. Mostly cloudy.6 mph89%29.77 "Hg5 mi
5:00 PM77 °FLight rain. Overcast.6 mph89%29.77 "Hg6 mi
4:00 PM77 °FLight rain. Overcast.6 mph83%29.77 "HgN/A
3:00 PM77 °FOvercast.3 mph83%29.77 "HgN/A
2:00 PM77 °FOvercast.6 mph83%29.77 "HgN/A
1:00 PM77 °FLight rain. Overcast.1 mph83%29.80 "Hg5 mi
12:00 PM77 °FLight rain. Overcast.3 mph89%29.80 "Hg6 mi
11:00 AM77 °FLight rain. Overcast.6 mph89%29.80 "Hg5 mi
10:00 AM79 °FOvercast.3 mph84%29.80 "HgN/A
9:00 AM79 °FOvercast.3 mph84%29.80 "HgN/A
8:00 AM79 °FPartly sunny.1 mph84%29.77 "Hg5 mi
7:00 AM75 °FPartly sunny.No wind94%29.77 "Hg5 mi
6:00 AM75 °FPassing clouds.No wind89%29.77 "HgN/A
5:00 AM77 °FPassing clouds.3 mph79%29.74 "HgN/A
4:00 AM77 °FPassing clouds.3 mph79%29.74 "HgN/A
3:00 AM77 °FPassing clouds.3 mph83%29.74 "HgN/A
2:00 AM77 °FPassing clouds.3 mph83%29.74 "HgN/A
Weather by CustomWeather, © 2015

See weather overviewHow to use our weather pages